Radiation Dose at Monitoring Post of Fukushima Daini Nuclear Power Station
Date,Time,MP-1(microSv/h),MP-2(microSv/h),MP-3(microSv/h),MP-4(microSv/h),MP-5(microSv/h),MP-6(microSv/h),MP-7(microSv/h),Wind Direction,Wind Velocity(m/s),Rain
2022/05/02,00:00,0.146,0.138,0.213,0.206,0.216,0.117,0.078,north,4.2,Yes
2022/05/02,00:10,0.145,0.138,0.212,0.208,0.216,0.117,0.077,north-northwest,4.5,Yes
2022/05/02,00:20,0.146,0.138,0.212,0.207,0.216,0.116,0.077,north-northwest,5.0,Yes
2022/05/02,00:30,0.146,0.138,0.212,0.206,0.216,0.117,0.078,north-northwest,5.2,Yes
2022/05/02,00:40,0.147,0.137,0.212,0.208,0.216,0.117,0.077,north-northwest,5.5,Yes
2022/05/02,00:50,0.147,0.137,0.211,0.207,0.216,0.117,0.077,north-northwest,5.2,Yes
2022/05/02,01:00,0.145,0.137,0.212,0.207,0.216,0.117,0.077,northwest,4.9,No
2022/05/02,01:10,0.147,0.138,0.213,0.207,0.216,0.117,0.077,northwest,5.8,No
2022/05/02,01:20,0.146,0.137,0.213,0.207,0.216,0.117,0.077,north-northwest,6.3,No
2022/05/02,01:30,0.146,0.137,0.212,0.207,0.215,0.116,0.076,northwest,6.6,No
2022/05/02,01:40,0.146,0.137,0.213,0.206,0.216,0.116,0.076,northwest,7.1,No
2022/05/02,01:50,0.146,0.137,0.213,0.206,0.215,0.117,0.077,northwest,7.3,No
2022/05/02,02:00,0.146,0.138,0.212,0.206,0.215,0.117,0.076,northwest,7.3,No
2022/05/02,02:10,0.146,0.137,0.214,0.208,0.216,0.116,0.076,northwest,7.3,No
2022/05/02,02:20,0.146,0.137,0.213,0.208,0.216,0.116,0.076,northwest,6.6,No
2022/05/02,02:30,0.147,0.137,0.213,0.207,0.216,0.116,0.076,north-northwest,6.4,No
2022/05/02,02:40,0.147,0.137,0.211,0.208,0.216,0.116,0.077,north-northwest,6.8,No
2022/05/02,02:50,0.147,0.137,0.214,0.207,0.215,0.116,0.076,north-northwest,7.2,No
2022/05/02,03:00,0.147,0.138,0.214,0.206,0.215,0.116,0.076,north-northwest,6.6,No
2022/05/02,03:10,0.148,0.138,0.213,0.207,0.216,0.117,0.077,north-northwest,6.0,No
2022/05/02,03:20,0.147,0.137,0.212,0.208,0.216,0.117,0.076,north-northwest,5.0,No
2022/05/02,03:30,0.147,0.138,0.213,0.209,0.215,0.117,0.076,northwest,4.5,No
2022/05/02,03:40,0.147,0.137,0.212,0.207,0.216,0.117,0.076,north-northwest,3.7,No
2022/05/02,03:50,0.148,0.137,0.213,0.208,0.216,0.117,0.076,north-northwest,4.1,No
2022/05/02,04:00,0.146,0.138,0.213,0.208,0.214,0.117,0.077,north,2.9,No
2022/05/02,04:10,0.146,0.137,0.214,0.208,0.216,0.117,0.076,north-northwest,3.7,No
2022/05/02,04:20,0.147,0.137,0.214,0.207,0.215,0.117,0.076,north-northwest,3.8,No
2022/05/02,04:30,0.147,0.137,0.214,0.209,0.215,0.118,0.076,north-northwest,4.8,No
2022/05/02,04:40,0.147,0.137,0.213,0.209,0.215,0.117,0.076,north-northwest,5.0,No
2022/05/02,04:50,0.148,0.138,0.213,0.207,0.216,0.117,0.076,north-northwest,4.6,No
2022/05/02,05:00,0.147,0.137,0.215,0.209,0.215,0.117,0.076,north-northwest,5.5,No
2022/05/02,05:10,0.146,0.137,0.214,0.209,0.214,0.117,0.076,north-northwest,4.7,No
2022/05/02,05:20,0.148,0.137,0.214,0.208,0.216,0.117,0.076,north-northwest,4.2,No
2022/05/02,05:30,0.148,0.137,0.214,0.208,0.216,0.117,0.076,north-northwest,3.9,No
2022/05/02,05:40,0.147,0.136,0.215,0.207,0.215,0.117,0.076,north-northwest,3.7,No
2022/05/02,05:50,0.147,0.137,0.213,0.209,0.216,0.117,0.076,north-northwest,4.6,No
2022/05/02,06:00,0.148,0.137,0.214,0.207,0.216,0.117,0.075,northwest,6.3,No
2022/05/02,06:10,0.147,0.138,0.213,0.208,0.214,0.117,0.075,northwest,6.6,No
2022/05/02,06:20,0.148,0.138,0.214,0.209,0.215,0.116,0.076,northwest,6.2,No
2022/05/02,06:30,0.147,0.138,0.214,0.209,0.215,0.117,0.076,northwest,6.1,No
2022/05/02,06:40,0.147,0.137,0.213,0.207,0.216,0.117,0.076,north-northwest,5.2,No
2022/05/02,06:50,0.146,0.137,0.214,0.208,0.215,0.117,0.076,northwest,5.2,No
2022/05/02,07:00,0.147,0.138,0.213,0.208,0.215,0.117,0.076,north-northwest,2.6,No
2022/05/02,07:10,0.147,0.136,0.213,0.207,0.216,0.117,0.076,north-northwest,2.0,No
2022/05/02,07:20,0.148,0.136,0.214,0.209,0.215,0.116,0.075,north-northwest,2.6,No
2022/05/02,07:30,0.148,0.136,0.212,0.206,0.215,0.117,0.076,north-northwest,2.4,No
2022/05/02,07:40,0.147,0.137,0.213,0.208,0.217,0.117,0.075,north,2.6,No
2022/05/02,07:50,0.147,0.137,0.213,0.206,0.215,0.117,0.076,north-northeast,2.5,No
2022/05/02,08:00,0.147,0.136,0.214,0.208,0.216,0.116,0.076,north-northeast,2.6,No
2022/05/02,08:10,0.146,0.137,0.214,0.207,0.215,0.116,0.075,north-northeast,3.2,No
2022/05/02,08:20,0.145,0.137,0.214,0.208,0.216,0.116,0.076,north,2.6,No
2022/05/02,08:30,0.148,0.138,0.213,0.206,0.215,0.118,0.076,north-northeast,3.5,No
2022/05/02,08:40,0.146,0.137,0.212,0.208,0.215,0.116,0.075,northeast,3.7,No
2022/05/02,08:50,0.148,0.138,0.213,0.207,0.215,0.117,0.076,northeast,3.8,No
2022/05/02,09:00,0.148,0.137,0.216,0.209,0.216,0.116,0.075,east-northeast,2.7,No
2022/05/02,09:10,0.148,0.137,0.214,0.207,0.217,0.118,0.076,northeast,3.8,No
2022/05/02,09:20,0.148,0.137,0.215,0.209,0.216,0.117,0.076,northeast,3.7,No
2022/05/02,09:30,0.147,0.138,0.215,0.209,0.215,0.118,0.076,northeast,4.5,No
2022/05/02,09:40,0.148,0.138,0.213,0.208,0.218,0.118,0.076,northeast,4.3,No
2022/05/02,09:50,0.147,0.137,0.215,0.209,0.214,0.118,0.075,northeast,4.2,No
2022/05/02,10:00,0.148,0.137,0.214,0.209,0.218,0.117,0.077,north-northeast,3.9,No
2022/05/02,10:10,0.147,0.138,0.216,0.210,0.215,0.117,0.076,north-northeast,4.0,No
2022/05/02,10:20,0.148,0.138,0.214,0.207,0.218,0.118,0.076,northeast,4.8,No
2022/05/02,10:30,0.148,0.137,0.216,0.209,0.216,0.117,0.077,northeast,3.5,No
2022/05/02,10:40,0.148,0.137,0.215,0.209,0.216,0.118,0.076,northeast,3.9,No
2022/05/02,10:50,0.147,0.139,0.215,0.209,0.217,0.118,0.077,east-northeast,3.7,No
2022/05/02,11:00,0.147,0.137,0.215,0.210,0.215,0.118,0.077,northeast,3.7,No
2022/05/02,11:10,0.149,0.137,0.215,0.208,0.217,0.118,0.076,northeast,3.4,No
2022/05/02,11:20,0.149,0.137,0.217,0.210,0.216,0.117,0.076,northeast,1.9,No
2022/05/02,11:30,0.148,0.138,0.215,0.209,0.217,0.118,0.076,east-northeast,4.3,No
2022/05/02,11:40,0.147,0.137,0.216,0.211,0.216,0.118,0.076,northeast,2.5,No
2022/05/02,11:50,0.149,0.137,0.215,0.210,0.219,0.118,0.077,east-northeast,3.1,No
2022/05/02,12:00,0.148,0.138,0.217,0.212,0.216,0.118,0.077,northeast,2.6,No
2022/05/02,12:10,0.148,0.138,0.216,0.210,0.217,0.118,0.077,northeast,2.2,No
2022/05/02,12:20,0.148,0.137,0.217,0.212,0.217,0.118,0.076,northeast,3.1,No
2022/05/02,12:30,0.148,0.138,0.217,0.210,0.218,0.118,0.075,northeast,2.5,No
2022/05/02,12:40,0.148,0.138,0.218,0.210,0.218,0.119,0.077,east-northeast,2.5,No
2022/05/02,12:50,0.148,0.138,0.216,0.210,0.216,0.118,0.076,east-northeast,3.3,No
2022/05/02,13:00,0.147,0.137,0.217,0.211,0.217,0.119,0.076,northeast,3.2,No
2022/05/02,13:10,0.149,0.138,0.216,0.211,0.216,0.118,0.077,northeast,3.4,No
2022/05/02,13:20,0.148,0.138,0.217,0.210,0.216,0.119,0.077,north-northeast,1.8,No
2022/05/02,13:30,0.149,0.138,0.216,0.210,0.218,0.118,0.077,east-northeast,1.8,No
2022/05/02,13:40,0.148,0.137,0.216,0.210,0.215,0.118,0.076,east,1.5,No
2022/05/02,13:50,0.148,0.138,0.217,0.210,0.219,0.119,0.076,east,2.1,No
2022/05/02,14:00,0.149,0.138,0.216,0.211,0.216,0.119,0.077,east-southeast,1.6,No
2022/05/02,14:10,0.149,0.137,0.217,0.210,0.218,0.119,0.076,east-southeast,1.8,No
2022/05/02,14:20,0.147,0.139,0.216,0.211,0.217,0.119,0.076,east-southeast,1.6,No
2022/05/02,14:30,0.149,0.138,0.218,0.211,0.218,0.118,0.076,southeast,1.5,Yes
2022/05/02,14:40,0.148,0.138,0.216,0.213,0.218,0.119,0.077,southeast,0.9,Yes
2022/05/02,14:50,0.150,0.138,0.218,0.211,0.217,0.119,0.077,southeast,2.5,Yes
2022/05/02,15:00,0.149,0.138,0.218,0.212,0.218,0.119,0.078,southeast,1.8,Yes
2022/05/02,15:10,0.150,0.137,0.217,0.211,0.218,0.120,0.076,southeast,2.4,No
2022/05/02,15:20,0.148,0.139,0.218,0.213,0.220,0.120,0.077,southeast,2.3,No
2022/05/02,15:30,0.149,0.138,0.217,0.211,0.216,0.118,0.077,southeast,1.5,No
2022/05/02,15:40,0.147,0.138,0.219,0.211,0.220,0.119,0.077,southeast,3.2,No
2022/05/02,15:50,0.149,0.139,0.216,0.213,0.216,0.119,0.077,southeast,2.9,No
2022/05/02,16:00,0.148,0.138,0.218,0.212,0.217,0.118,0.077,southeast,3.6,No
2022/05/02,16:10,0.148,0.138,0.217,0.212,0.217,0.119,0.077,southeast,4.3,No
2022/05/02,16:20,0.149,0.138,0.218,0.212,0.215,0.119,0.077,southeast,2.1,No
2022/05/02,16:30,0.148,0.139,0.218,0.213,0.219,0.119,0.076,south-southeast,3.7,No
2022/05/02,16:40,0.149,0.138,0.218,0.212,0.217,0.120,0.077,southeast,5.6,No
2022/05/02,16:50,0.149,0.139,0.219,0.212,0.220,0.120,0.076,south-southeast,5.8,No
2022/05/02,17:00,0.150,0.138,0.217,0.212,0.219,0.119,0.076,southeast,5.9,No
2022/05/02,17:10,0.149,0.138,0.218,0.212,0.218,0.120,0.077,southeast,6.4,Yes
2022/05/02,17:20,0.150,0.138,0.219,0.213,0.220,0.120,0.077,southeast,6.8,Yes
2022/05/02,17:30,0.150,0.139,0.218,0.212,0.218,0.119,0.077,southeast,5.8,No
2022/05/02,17:40,0.150,0.139,0.219,0.212,0.218,0.120,0.076,south-southeast,5.3,Yes
2022/05/02,17:50,0.150,0.139,0.219,0.212,0.217,0.120,0.076,south-southeast,4.3,Yes
2022/05/02,18:00,0.150,0.139,0.219,0.212,0.220,0.120,0.077,west,3.5,Yes
2022/05/02,18:10,0.152,0.141,0.221,0.215,0.221,0.123,0.080,west-northwest,7.3,Yes
2022/05/02,18:20,0.154,0.146,0.221,0.216,0.223,0.125,0.082,west-northwest,6.5,Yes
2022/05/02,18:30,0.156,0.146,0.223,0.217,0.225,0.128,0.084,west-northwest,6.2,Yes
2022/05/02,18:40,0.159,0.148,0.224,0.219,0.226,0.131,0.087,west,5.8,Yes
2022/05/02,18:50,0.160,0.150,0.226,0.219,0.227,0.132,0.089,west-northwest,6.1,Yes
2022/05/02,19:00,0.161,0.152,0.227,0.221,0.230,0.134,0.090,west-northwest,6.5,Yes
2022/05/02,19:10,0.162,0.152,0.229,0.222,0.229,0.134,0.091,northwest,5.2,Yes
2022/05/02,19:20,0.162,0.152,0.229,0.223,0.231,0.134,0.090,northwest,5.1,Yes
2022/05/02,19:30,0.161,0.150,0.227,0.220,0.228,0.133,0.090,northwest,2.0,Yes
2022/05/02,19:40,0.160,0.150,0.225,0.220,0.226,0.131,0.089,west-northwest,1.8,Yes
2022/05/02,19:50,0.158,0.149,0.225,0.216,0.227,0.129,0.087,north-northwest,0.9,Yes
2022/05/02,20:00,0.156,0.146,0.222,0.215,0.224,0.127,0.085,northwest,0.7,Yes
2022/05/02,20:10,0.155,0.144,0.221,0.215,0.222,0.126,0.084,west-northwest,1.3,Yes
2022/05/02,20:20,0.154,0.144,0.221,0.213,0.222,0.125,0.083,west-northwest,1.2,Yes
2022/05/02,20:30,0.154,0.144,0.220,0.215,0.222,0.125,0.084,west,0.8,Yes
2022/05/02,20:40,0.155,0.145,0.222,0.215,0.224,0.126,0.085,west-southwest,1.2,Yes
2022/05/02,20:50,0.156,0.146,0.223,0.216,0.225,0.127,0.085,southwest,1.2,Yes
2022/05/02,21:00,0.155,0.145,0.223,0.215,0.223,0.126,0.085,south,1.2,Yes
2022/05/02,21:10,0.154,0.144,0.222,0.215,0.224,0.127,0.084,south-southeast,0.6,Yes
2022/05/02,21:20,0.155,0.144,0.220,0.214,0.221,0.125,0.084,-,CALM,Yes
2022/05/02,21:30,0.153,0.142,0.221,0.214,0.222,0.124,0.083,west,1.5,Yes
2022/05/02,21:40,0.152,0.141,0.218,0.212,0.222,0.122,0.082,northwest,2.6,No
2022/05/02,21:50,0.151,0.141,0.217,0.212,0.219,0.122,0.082,northwest,3.7,No
2022/05/02,22:00,0.150,0.140,0.216,0.210,0.218,0.122,0.081,north-northwest,4.3,No
2022/05/02,22:10,0.150,0.139,0.217,0.210,0.220,0.120,0.080,north-northwest,2.6,No
2022/05/02,22:20,0.149,0.140,0.215,0.209,0.218,0.120,0.079,north,0.9,No
2022/05/02,22:30,0.149,0.139,0.216,0.209,0.218,0.119,0.079,north-northwest,2.6,No
2022/05/02,22:40,0.148,0.138,0.215,0.209,0.218,0.119,0.078,north,2.5,No
2022/05/02,22:50,0.149,0.138,0.215,0.208,0.217,0.120,0.077,north-northeast,1.7,No
2022/05/02,23:00,0.148,0.138,0.215,0.209,0.216,0.119,0.077,north,0.8,No
2022/05/02,23:10,0.147,0.138,0.215,0.208,0.216,0.119,0.077,north-northeast,0.6,No
2022/05/02,23:20,0.147,0.138,0.214,0.209,0.217,0.118,0.076,northeast,0.6,No
2022/05/02,23:30,0.148,0.137,0.214,0.208,0.218,0.118,0.076,north-northwest,1.3,No
2022/05/02,23:40,0.146,0.137,0.216,0.208,0.216,0.117,0.077,north-northwest,1.9,No
2022/05/02,23:50,0.148,0.137,0.214,0.208,0.215,0.118,0.076,northwest,2.1,No
